Location: Humble ISD Astronomical Observatory
(29.9680°N, 95.2620°W)
Time: 10:29:35
(UTC-05:00)

N. Korean satellite - Visible Passes

Search period start: 18 March 2019 00:00
Search period end: 28 March 2019 00:00
Orbit: 455 x 511 km, 97.2° (Epoch: 18 March)

Date Brightness Start Highest point End Pass type
(mag) Time Alt. Az. Time Alt. Az. Time Alt. Az.
20 Mar 9.2 06:52:07 10° NE 06:55:09 26° E 06:58:13 10° SSE visible
21 Mar 10.1 06:28:50 10° ENE 06:30:16 12° E 06:31:42 10° ESE visible
24 Mar 9.5 06:46:26 10° NE 06:49:18 22° E 06:52:11 10° SSE visible
25 Mar 10.6 06:24:10 10° E 06:24:22 10° E 06:24:35 10° E visible
